Temperature
15 14 15 15 15 14 14 14 14 14 14 14 14 14 14 14 14 14 14 14 14 14 14 14 14 14 13 13 13 13 13 13 13 13 13 12 12 12 12 12 12 12 11
15 14 14 14 14 14 14 14 14 14 14 13 13 13 13 13 13 13 14 14 14 14 14 14 14 13 13 13 13 13 13 13 13 12 12 12 12 12 12 12 12 11 11
14 14 14 14 14 14 14 14 14 13 13 13 13 13 13 13 13 13 13 14 14 14 14 14 13 13 13 13 13 13 13 13 12 12 12 12 12 12 12 12 11 11 11
14 14 14 14 14 14 14 14 13 13 13 13 13 13 13 13 13 13 13 13 14 13 13 13 13 13 13 13 12 12 12 12 12 12 12 12 12 12 11 12 11 11 11
14 14 14 14 14 13 13 13 13 13 13 13 13 13 13 13 13 13 13 13 13 13 13 13 13 13 13 12 12 12 12 12 12 12 12 12 12 11 11 11 11 11 11
13 13 13 13 13 13 13 13 13 13 13 13 13 13 13 13 13 13 13 13 13 12 13 13 13 12 12 12 12 12 12 12 12 12 12 12 11 11 11 11 11 11 11
13 13 13 13 13 13 13 13 13 12 12 12 12 12 12 12 12 12 12 12 12 12 12 12 12 12 12 12 12 12 12 12 11 11 11 11 11 11 11 11 11 11 11
12 12 12 13 13 13 12 12 12 12 12 12 11 11 11 11 12 12 12 12 12 12 12 12 12 12 12 12 12 12 11 11 11 11 11 11 11 11 11 11 11 10 10
12 12 12 12 12 12 12 12 12 12 11 11 11 11 11 11 11 11 11 11 11 11 11 11 11 11 11 11 11 11 11 11 11 11 11 11 11 11 11 10 10 10 10
11 11 11 11 11 11 12 12 11 11 11 11 11 11 11 11 10 10 11 11 11 11 11 11 11 11 11 11 11 11 11 10 10 10 10 10 10 10 10 10 10 10 10
10 11 11 11 11 11 11 11 11 11 11 10 10 10 10 10 10 10 10 10 10 10 10 10 10 10 10 10 10 10 10 10 10 10 10 10 10 10 10 10 9 9 9
10 10 10 10 10 10 10 10 10 10 10 10 10 10 10 9 10 9 9 9 9 10 10 10 10 10 10 10 10 9 9 9 9 9 9 9 9 9 9 9 9 9 9
9 9 10 9 10 10 10 10 10 10 10 10 10 9 9 9 9 9 9 9 8 9 9 9 9 9 9 9 9 9 9 9 9 9 8 8 8 8 8 8 8 8 8
9 9 9 9 9 9 9 9 9 9 9 9 9 9 9 9 9 8 8 8 7 7 8 8 8 8 8 8 8 8 8 8 8 8 8 8 8 8 8 8 8 8 8
8 8 8 8 9 9 8 8 8 8 8 8 8 8 8 8 8 8 7 7 7 6 7 7 7 8 8 7 7 7 7 7 8 8 7 7 7 7 7 7 7 7 7
8 8 8 8 8 8 8 8 8 8 8 8 8 7 7 7 7 7 7 6 6 6 6 6 6 7 7 7 6 6 7 7 7 7 7 7 7 7 7 7 7 7 7
7 7 7 7 7 7 7 7 7 7 7 7 7 7 7 7 7 6 6 6 6 5 5 6 6 6 6 6 6 6 6 6 6 6 6 6 6 6 6 6 6 6 6
6 6 7 7 7 7 7 7 7 7 6 6 6 6 6 6 6 6 5 5 5 5 5 5 5 5 5 5 5 5 6 6 6 6 6 6 6 6 6 6 6 6 6
6 6 6 6 6 6 6 6 6 6 6 6 6 6 6 5 5 5 5 5 5 5 4 4 4 4 5 5 5 5 5 5 5 5 5 5 5 5 5 5 5 5 5
5 5 5 5 6 6 6 6 6 6 6 5 5 5 5 5 5 4 4 4 4 4 4 4 4 4 4 4 4 4 4 4 4 4 4 4 4 5 5 5 5 5 5
5 5 5 5 5 5 5 5 5 5 5 5 5 4 4 4 4 4 3 3 3 3 3 3 3 3 3 3 3 3 3 3 3 4 4 4 4 4 4 4 4 4 4
4 4 4 4 4 4 4 4 4 4 4 4 4 4 3 3 3 3 3 3 3 3 2 2 2 2 2 2 2 2 2 2 2 3 3 3 3 3 4 4 4 4 4
4 4 4 4 4 4 3 3 3 3 3 3 3 3 3 3 3 3 3 3 3 2 2 2 2 2 2 2 2 2 2 2 2 2 2 2 3 3 3 3 3 3 3
3 3 3 3 3 3 3 3 3 3 3 3 2 2 2 2 2 2 2 2 2 2 2 2 1 1 1 1 1 2 2 2 2 2 2 2 2 2 2 2 2 2 3
3 3 3 3 3 3 2 2 2 2 2 2 2 1 1 1 1 1 1 1 1 1 1 1 1 1 1 1 1 1 1 1 1 1 1 1 1 2 2 2 2 2 2
2 2 2 2 2 2 2 1 1 1 1 1 1 1 1 0 0 0 0 -0 0 1 1 1 1 1 1 1 1 1 1 1 1 0 1 1 1 1 0 1 1 1 1
Wind_Speed
5 5 5 7 8 9 8 7 7 8 7 7 8 8 6 5 5 6 8 10 10 9 9 8 8 7 7 7 7 7 6 6 6 7 7 7 6 6 6 5 5 6 5
5 6 5 5 6 8 8 7 6 5 5 4 4 5 5 5 5 5 7 9 10 10 10 9 9 9 9 8 8 8 8 7 7 8 8 7 7 7 7 6 6 6 5
6 6 6 6 6 8 7 6 5 4 3 3 3 3 3 4 5 6 7 8 9 10 11 11 11 11 10 10 10 9 9 9 9 9 9 8 8 8 7 7 7 6 6
7 5 5 6 6 7 5 5 4 3 3 3 3 3 3 3 4 5 6 8 8 8 10 12 12 11 11 11 11 11 10 10 10 10 10 9 8 8 8 8 7 7 7
6 5 5 5 6 5 4 5 4 3 3 3 3 3 3 3 3 4 4 6 8 9 9 10 11 11 11 11 12 13 12 12 11 11 11 10 9 9 9 9 9 8 8
4 4 3 4 4 4 4 4 4 3 3 2 2 3 3 3 3 4 4 4 6 8 9 9 9 10 12 12 12 13 13 13 13 12 11 10 10 10 10 10 9 9 8
3 4 3 4 4 4 5 5 4 4 3 3 2 2 3 4 4 4 3 3 4 6 7 8 8 9 9 11 12 12 13 14 14 13 13 12 11 12 11 11 11 10 9
3 3 4 4 4 3 4 4 4 3 3 3 3 2 2 3 4 4 3 3 4 3 4 7 7 7 8 8 10 13 13 14 14 14 14 14 14 13 12 12 12 12 10
2 3 3 3 4 4 4 3 4 4 4 4 3 3 3 3 2 3 5 4 4 3 3 5 6 7 7 7 8 10 12 13 14 15 15 15 15 14 14 13 12 12 11
1 2 2 3 3 3 4 4 4 3 4 4 3 3 3 2 2 2 3 4 4 4 4 4 4 6 7 7 8 10 12 13 14 15 15 15 15 15 15 14 13 12 11
2 2 3 3 3 3 3 3 3 3 3 3 3 2 3 2 3 2 4 3 4 4 4 4 4 5 7 8 9 10 12 13 14 15 16 16 16 16 15 15 14 13 12
1 1 2 2 2 2 2 3 3 3 3 3 3 3 2 3 3 3 4 4 4 4 5 5 5 5 6 8 10 11 11 12 14 15 16 16 16 16 16 15 15 14 13
1 1 1 2 2 2 2 2 2 3 3 3 3 3 3 4 3 3 3 4 4 4 4 5 5 4 6 6 8 11 12 13 14 15 17 17 16 16 16 16 15 15 13
1 1 1 1 1 1 2 2 2 2 2 3 3 3 3 3 3 3 3 4 5 4 3 4 3 4 4 6 9 11 11 14 14 15 17 17 16 15 15 16 15 14 12
0 1 1 1 1 0 1 1 2 2 2 3 4 4 3 3 3 3 2 2 4 6 7 5 3 3 4 6 9 10 10 13 15 15 16 16 15 14 13 13 13 12 11
0 1 1 1 1 1 1 1 1 2 2 3 3 4 4 3 3 3 2 2 3 5 7 5 5 4 4 6 10 10 10 13 15 15 15 15 14 14 12 11 11 11 11
0 0 0 1 1 1 1 1 2 2 2 3 3 3 4 4 3 3 3 3 4 4 7 7 5 5 5 6 7 8 10 10 11 15 15 15 15 14 13 12 12 11 11
1 1 0 1 0 1 1 2 2 2 3 4 3 3 4 4 4 3 3 4 5 5 6 9 7 5 6 7 7 7 7 8 9 13 15 15 15 14 14 13 12 11 11
1 1 0 0 0 1 1 1 2 2 4 4 4 4 5 5 5 4 4 5 5 5 5 7 8 6 6 5 6 7 7 6 8 10 13 14 14 13 13 13 13 12 11
1 1 1 1 1 1 1 2 1 2 3 3 4 5 5 5 6 5 5 6 5 5 6 6 7 6 5 4 4 6 6 5 6 6 9 10 12 13 14 14 14 13 12
2 2 2 2 1 1 2 2 2 3 4 4 4 4 5 5 6 6 6 5 5 6 6 6 7 6 6 5 5 5 7 6 6 5 5 6 6 7 9 12 13 13 12
3 3 3 3 2 2 4 4 3 3 4 4 4 4 5 5 6 7 8 8 8 7 7 7 7 8 8 7 6 6 6 6 6 3 4 6 4 6 6 8 12 14 13
2 2 3 3 2 3 5 5 5 3 3 3 4 4 4 5 6 4 6 7 8 10 10 8 9 9 9 8 8 8 7 7 8 4 4 6 4 6 5 8 11 13 13
2 2 2 2 3 4 6 6 6 3 3 3 3 3 4 5 5 5 5 5 6 6 8 7 8 9 9 8 8 9 9 7 5 4 4 6 5 5 4 6 10 12 12
2 2 2 2 3 4 6 6 5 2 2 3 4 4 4 4 7 8 5 5 6 7 8 10 12 12 13 12 9 6 6 5 6 5 3 3 3 3 3 4 7 11 12
2 2 2 2 3 3 6 7 5 1 2 3 3 4 6 7 9 9 5 5 6 7 7 8 9 10 9 9 9 7 7 7 5 4 4 3 3 2 2 2 3 6 8
Wind_Direction
177 176 176 176 178 181 183 186 194 203 206 202 199 200 206 210 191 172 169 181 190 204 217 224 232 241 248 254 259 265 273 278 281 280 282 282 284 285 287 297 301 300 296
176 176 175 173 179 185 185 188 199 203 202 198 203 202 200 204 195 176 168 186 197 206 217 226 234 242 248 252 257 261 265 269 275 281 281 279 280 280 281 281 284 286 289
178 172 174 176 182 186 183 184 201 202 192 197 210 216 208 206 196 190 183 186 196 210 220 228 235 242 248 251 256 261 265 266 269 272 275 277 279 276 273 272 273 279 278
184 175 175 177 178 177 176 182 187 187 193 198 210 221 219 208 206 205 195 189 194 205 218 227 233 241 247 253 258 263 265 266 266 267 268 270 274 273 270 268 266 275 270
185 177 176 175 173 172 173 183 182 178 190 199 210 218 218 219 225 213 208 200 200 203 208 219 226 234 244 253 260 265 266 265 262 263 262 264 267 270 269 271 267 269 265
178 168 167 169 163 165 172 174 176 181 181 186 219 239 232 227 227 223 224 212 208 208 207 211 219 231 239 246 256 262 266 266 262 260 258 258 262 267 267 269 271 265 258
173 159 165 161 164 175 178 178 175 184 187 169 179 247 259 241 232 228 220 217 214 214 216 215 216 222 231 239 246 258 265 267 264 260 258 257 259 263 265 265 268 264 249
160 161 164 165 166 172 176 178 168 177 182 175 169 173 255 267 253 237 227 227 230 215 219 223 220 220 224 229 241 248 256 266 264 263 260 258 259 261 263 265 264 259 241
153 147 155 161 162 168 178 180 172 174 190 195 180 172 190 228 260 243 232 228 231 231 232 220 225 230 233 231 236 245 253 259 267 268 265 261 259 260 262 261 261 252 240
136 131 140 156 164 178 183 187 181 186 180 197 207 215 212 181 211 257 246 233 236 241 242 247 232 231 239 243 244 246 249 253 265 270 270 268 263 261 262 258 255 250 246
159 141 143 158 179 191 187 187 186 187 192 198 203 219 240 250 231 236 263 257 252 247 249 250 244 232 241 244 244 249 249 253 263 267 271 270 268 265 263 258 252 251 249
162 154 144 158 177 182 186 195 201 196 202 206 210 208 218 226 233 235 258 267 262 256 254 248 245 239 239 244 247 254 253 255 262 266 271 273 272 268 264 261 256 250 248
168 161 147 158 182 183 178 188 204 211 214 212 219 226 231 238 242 246 260 274 275 269 248 241 241 239 247 244 248 257 256 255 258 265 271 274 273 272 265 262 259 251 248
152 140 123 147 203 190 183 197 210 214 219 223 231 235 240 248 249 250 252 267 282 278 258 254 255 238 240 253 256 256 256 253 255 260 266 269 271 269 266 261 258 252 245
194 146 148 172 176 181 185 183 213 224 225 227 232 233 239 242 239 242 249 251 256 275 273 261 259 257 252 257 258 255 254 255 256 257 260 264 265 262 261 260 248 238 237
201 113 136 172 174 179 159 190 246 242 234 241 237 234 241 255 258 252 253 260 257 263 273 272 278 283 274 273 265 261 260 262 257 256 256 258 259 258 254 253 242 233 231
86 95 153 191 187 189 189 203 248 273 253 256 261 251 252 255 257 258 256 253 256 265 274 284 288 291 275 271 271 261 260 256 256 255 254 254 255 252 249 245 236 231 229
39 22 284 218 205 242 228 220 239 254 250 246 255 260 262 262 253 254 252 254 259 261 271 283 289 289 279 267 267 269 269 264 258 257 252 252 250 246 244 236 230 229 227
1 349 348 167 223 256 266 266 254 257 257 254 253 257 260 253 250 251 256 257 261 269 268 280 284 287 287 277 279 281 275 269 268 262 256 252 248 244 238 232 227 226 223
353 343 337 297 255 263 278 289 293 289 282 278 272 265 261 252 249 251 254 251 258 267 272 279 285 287 287 285 277 280 283 272 272 270 259 255 251 246 238 232 225 222 219
353 333 325 320 305 289 302 306 296 290 284 285 282 280 281 277 272 268 267 259 260 263 271 275 283 290 288 291 278 279 282 287 280 264 259 253 248 243 235 228 219 213 212
358 355 350 347 342 332 332 327 313 290 289 286 292 296 296 286 292 296 293 287 276 266 266 269 278 282 283 282 279 275 277 283 279 248 251 265 249 250 241 226 220 211 206
356 350 346 349 336 323 324 319 316 306 295 291 292 295 305 309 307 299 302 305 296 287 278 270 271 275 280 276 272 267 261 262 267 257 255 265 251 251 246 237 224 213 206
344 331 329 330 330 330 334 327 318 307 294 297 298 300 303 310 311 316 309 304 297 294 288 279 268 272 276 275 265 262 259 263 273 258 233 258 257 254 253 236 226 216 211
354 349 348 347 339 336 341 342 348 335 326 323 322 322 315 310 312 318 316 303 300 298 301 301 297 293 290 286 281 275 259 253 269 264 231 231 254 268 260 241 227 216 209
351 354 358 357 352 344 348 350 353 345 333 330 328 323 318 317 320 322 316 304 298 301 308 309 305 304 298 289 285 265 255 249 261 260 219 209 224 217 252 243 225 218 209
Height
1513 1515 1517 1519 1521 1523 1525 1527 1529 1531 1533 1534 1536 1537 1538 1540 1540 1540 1540 1541 1541 1541 1541 1541 1541 1541 1541 1541 1540 1540 1539 1538 1537 1537 1536 1535 1534 1533 1532 1531 1530 1529 1529
1510 1512 1514 1516 1518 1520 1522 1524 1526 1529 1530 1532 1534 1535 1536 1537 1538 1538 1538 1538 1539 1539 1539 1539 1539 1539 1539 1539 1538 1537 1537 1536 1535 1534 1533 1532 1531 1530 1529 1529 1528 1527 1526
1506 1508 1510 1512 1515 1517 1519 1521 1524 1526 1528 1529 1530 1532 1533 1534 1535 1535 1535 1536 1536 1536 1536 1536 1536 1536 1536 1536 1535 1535 1534 1533 1532 1531 1530 1529 1528 1527 1526 1526 1525 1524 1523
1502 1504 1506 1509 1511 1514 1516 1518 1520 1522 1524 1525 1527 1528 1530 1531 1531 1532 1532 1532 1532 1533 1533 1533 1533 1533 1533 1533 1532 1532 1531 1530 1529 1528 1527 1526 1525 1524 1523 1522 1521 1520 1519
1498 1501 1503 1505 1508 1510 1512 1514 1516 1519 1520 1522 1523 1524 1526 1527 1528 1528 1529 1529 1529 1529 1529 1529 1530 1530 1529 1529 1529 1528 1527 1526 1525 1524 1523 1522 1521 1520 1519 1518 1517 1516 1516
1494 1496 1499 1501 1504 1505 1508 1510 1512 1515 1516 1518 1519 1521 1522 1523 1524 1524 1525 1525 1525 1525 1525 1525 1525 1525 1525 1525 1524 1524 1523 1522 1521 1520 1519 1518 1517 1516 1515 1514 1513 1512 1512
1490 1492 1494 1497 1499 1501 1503 1506 1508 1511 1512 1514 1516 1516 1517 1518 1519 1519 1520 1520 1521 1521 1521 1521 1521 1521 1520 1520 1520 1519 1519 1518 1517 1516 1515 1514 1513 1512 1511 1510 1509 1508 1508
1485 1487 1490 1492 1495 1497 1499 1501 1503 1506 1508 1510 1511 1513 1513 1514 1513 1514 1515 1516 1516 1516 1516 1516 1516 1516 1516 1515 1515 1514 1514 1513 1512 1511 1510 1509 1508 1507 1506 1505 1505 1504 1503
1481 1483 1486 1488 1490 1492 1495 1497 1499 1501 1503 1505 1507 1509 1509 1508 1508 1508 1509 1510 1511 1511 1511 1511 1511 1511 1511 1510 1509 1509 1508 1507 1506 1505 1504 1503 1503 1502 1501 1500 1499 1499 1498
1476 1479 1481 1484 1486 1488 1490 1492 1494 1496 1498 1500 1502 1503 1505 1504 1505 1503 1503 1504 1505 1505 1505 1506 1505 1505 1505 1504 1504 1503 1502 1502 1501 1499 1498 1498 1497 1496 1496 1495 1495 1494 1494
1472 1475 1477 1480 1482 1484 1486 1488 1490 1492 1493 1495 1496 1498 1499 1500 1500 1499 1497 1497 1498 1499 1499 1499 1499 1499 1499 1498 1497 1497 1496 1495 1494 1493 1492 1491 1490 1490 1490 1489 1489 1489 1489
1468 1471 1473 1476 1478 1480 1482 1484 1486 1487 1489 1490 1491 1493 1493 1494 1494 1494 1493 1491 1491 1491 1492 1493 1493 1493 1492 1492 1491 1490 1489 1488 1487 1486 1485 1484 1484 1483 1483 1483 1482 1482 1482
1464 1467 1469 1472 1474 1476 1478 1480 1481 1483 1484 1485 1486 1487 1488 1489 1490 1490 1489 1487 1485 1484 1484 1485 1486 1486 1486 1485 1484 1484 1482 1481 1480 1479 1478 1477 1476 1476 1475 1476 1476 1476 1476
1462 1464 1466 1468 1470 1472 1473 1475 1477 1478 1479 1480 1481 1482 1482 1483 1484 1484 1484 1483 1480 1478 1477 1478 1478 1479 1479 1478 1477 1476 1475 1474 1473 1472 1471 1470 1469 1469 1469 1469 1469 1468 1469
1459 1461 1462 1464 1466 1468 1469 1470 1471 1473 1474 1474 1475 1476 1477 1478 1478 1478 1478 1479 1478 1474 1471 1471 1471 1471 1471 1471 1470 1469 1468 1467 1466 1465 1464 1463 1462 1461 1461 1461 1462 1461 1462
1457 1458 1459 1461 1462 1464 1464 1466 1467 1467 1468 1469 1470 1470 1471 1471 1472 1472 1472 1473 1473 1472 1467 1465 1465 1465 1464 1463 1462 1462 1460 1459 1458 1457 1456 1455 1455 1454 1454 1454 1454 1454 1455
1454 1455 1457 1458 1459 1459 1460 1461 1462 1462 1463 1464 1464 1464 1465 1466 1466 1466 1467 1466 1466 1466 1462 1459 1459 1458 1457 1456 1455 1454 1453 1451 1450 1449 1448 1448 1447 1447 1447 1447 1447 1448 1448
1451 1453 1454 1454 1455 1456 1456 1457 1457 1458 1458 1458 1459 1459 1460 1460 1460 1461 1461 1460 1460 1459 1457 1453 1451 1451 1450 1449 1447 1446 1445 1444 1442 1441 1441 1440 1440 1439 1439 1440 1440 1440 1441
1449 1450 1451 1451 1451 1452 1452 1453 1453 1454 1454 1454 1454 1454 1454 1455 1454 1454 1454 1454 1453 1452 1451 1449 1445 1444 1442 1442 1440 1438 1437 1436 1435 1434 1433 1432 1432 1432 1432 1432 1432 1433 1434
1447 1448 1448 1448 1448 1448 1449 1449 1449 1449 1450 1449 1450 1450 1449 1449 1449 1448 1448 1447 1446 1445 1444 1442 1440 1437 1435 1434 1433 1431 1429 1428 1427 1426 1425 1425 1424 1424 1424 1424 1424 1426 1427
1446 1446 1446 1445 1445 1445 1445 1445 1445 1445 1445 1445 1445 1445 1444 1444 1443 1442 1442 1441 1440 1439 1437 1436 1433 1431 1429 1427 1426 1424 1422 1420 1419 1419 1418 1417 1417 1416 1415 1415 1416 1418 1420
1444 1444 1443 1443 1442 1442 1442 1442 1441 1441 1440 1440 1440 1439 1439 1438 1437 1436 1436 1435 1434 1433 1431 1429 1427 1425 1423 1421 1420 1418 1416 1414 1411 1412 1412 1410 1410 1409 1408 1408 1409 1410 1412
1442 1441 1441 1440 1440 1439 1439 1438 1437 1437 1436 1435 1435 1434 1433 1433 1431 1430 1429 1428 1428 1427 1426 1424 1421 1419 1417 1415 1414 1411 1410 1408 1406 1406 1406 1403 1403 1402 1402 1402 1403 1404 1406
1440 1439 1439 1438 1437 1436 1435 1434 1433 1432 1432 1431 1430 1429 1428 1427 1426 1425 1423 1422 1421 1420 1419 1418 1416 1413 1412 1409 1408 1406 1403 1401 1400 1400 1400 1398 1397 1396 1397 1397 1398 1399 1400
1438 1437 1436 1435 1434 1433 1432 1431 1429 1428 1427 1427 1427 1426 1424 1423 1422 1420 1418 1416 1415 1414 1413 1411 1410 1407 1405 1403 1401 1399 1397 1395 1392 1392 1393 1392 1391 1390 1390 1391 1392 1394 1395
1436 1435 1434 1433 1432 1430 1429 1427 1426 1424 1424 1423 1422 1422 1421 1419 1417 1416 1414 1411 1409 1408 1406 1404 1402 1400 1398 1396 1394 1393 1391 1389 1386 1385 1385 1386 1385 1385 1384 1385 1387 1388 1389